Location: Marcé
(47.5801°N, 0.3280°W)
Time: 22:00:12
(UTC+01:00)

Altair - Pass Details

Date: 09 December 2021
Orbit: 1501 x 1683 km, 47.2° (Epoch: 20 January)

Event Time Altitude Azimuth Distance (km) Brightness Sun altitude
Rises 22:29:10 0° 289° (WNW) 4,669 10.6 -52.1°
Reaches altitude 10° 22:33:01 10° 276° (W) 3,668 9.9 -52.6°
Enters shadow 22:36:22 19° 257° (WSW) 3,027 9.2 -53.1°
Maximum altitude 22:39:37 23° 229° (SW) 2,786 - -53.6°
Drops below altitude 10° 22:46:11 10° 182° (S) 3,647 - -54.5°
Sets 22:50:02 0° 169° (S) 4,636 - -55.1°
